User: anonymous   Login
Location: Red Shale Campground
(45.5700°N, 106.1600°W)
Time: 15:08:55
(UTC-06:00)
Language:

FENGYUN 3A - Orbit

View from above orbital plane
View from above orbital plane
View from above satellite
View from above satellite

Ground track
Ground track

The orbit data is extracted from the following two-line orbital elements,

1 32958U 08026A   14298.18012701  .00000161  00000-0  96342-4 0  4820
2 32958 098.5393 352.5349 0009203 196.4071 163.6830 14.19482344332284
Epoch (UTC): 25 October 2014 04:19:22
Eccentricity: 0.0009203
inclination: 98.5393°
perigee height: 820 km
apogee height: 834 km
right ascension of ascending node: 352.5349°
argument of perigee: 196.4071°
revolutions per day: 14.19482344
mean anomaly at epoch: 163.6830°
orbit number at epoch: 33228

The dashed part of the orbit path shows where the satellite is in the earth's shadow,  

DLR